Regional Weather Roundup
Issued by NWS Green Bay, WI

Home | Current Version | Previous Version | Graphics & Text | Print | Product List | Glossary Off
Versions: 1 2 3 4 5 6 7 8 9 10 11 12 13 14 15 16 17 18 19 20 21 22 23 24 25 26 27 28 29 30 31 32 33 34 35 36 37 38 39 40 41 42 43 44 45 46 47 48 49 50

000
ASUS43 KGRB 180111
RWRGRB

NORTH-CENTRAL AND NORTHEAST WISCONSIN REGIONAL WEATHER ROUNDUP
NATIONAL WEATHER SERVICE GREEN BAY WI
700 PM CST FRI NOV 17 2017

WIZ005-009-010>012-018-019-180200-
NORTH CENTRAL WISCONSIN

CITY           SKY/WX    TMP DP  RH WIND       PRES   REMARKS
IRONWOOD       CLOUDY   N/A N/A N/A SW3       29.65S
MANITOWISH WTR LGT SNOW  32  32 100 CALM      29.63R
ARBOR VITAE    LGT SNOW  34  33  96 CALM      29.62R
EAGLE RIVER    LGT SNOW  32  32 100 CALM      29.61S
LAND O LAKES   SNOW      33  33 100 CALM      29.63F VSB 1/2
RHINELANDER    LGT RAIN  33  33 100 W5        29.62S FOG
PHILLIPS       CLOUDY    32  32 100 CALM      29.63S FOG
ANTIGO         CLOUDY    32  32 100 CALM      29.62R FOG
TOMAHAWK       DRIZZLE   32  31  97 CALM      29.63R
MERRILL        RAIN      33  33 100 CALM      29.64R
$$

WIZ013-073-180200-
NORTHEAST WISCONSIN

CITY           SKY/WX    TMP DP  RH WIND       PRES   REMARKS
IRON MOUNTAIN  HVY RAIN  34  32  92 CALM      29.62R FOG
MARINETTE      LGT RAIN  38  37  97 SW6       29.66S FOG
OCONTO         CLOUDY    37  37  98 CALM      29.64F
$$

WIZ017-030-035>037-045-180200-
CENTRAL WISCONSIN

CITY           SKY/WX    TMP DP  RH WIND       PRES   REMARKS
MEDFORD        RAIN      32  32 100 CALM      29.62R
WAUSAU         CLOUDY    34  34 100 CALM      29.62R FOG
MOSINEE        CLOUDY    34  34 100 CALM      29.63R FOG
MARSHFIELD     LGT RAIN  34  33  96 CALM      29.61R FOG
WISC RAPIDS    CLOUDY    36  36 100 CALM      29.63S FOG
STEVENS POINT  DRIZZLE   33  33 100 CALM      29.63R
WAUPACA        RAIN      38  37  94 CALM      29.62F
SHAWANO        DRIZZLE   38  36  93 CALM      29.62F
CLINTONVILLE   DRIZZLE   36  36 100 SE3       29.62F
WAUTOMA        CLOUDY    36  36 100 CALM      29.62F FOG
$$

WIZ038-039-048-051-180200-
FOX VALLEY

CITY           SKY/WX    TMP DP  RH WIND       PRES   REMARKS
NWS GREEN BAY  LGT RAIN  38  38 100 CALM      29.64F FOG
APPLETON       LGT RAIN  37  37 100 CALM      29.62F
OSHKOSH        LGT RAIN  38  37  97 CALM      29.62F FOG
FOND DU LAC    LGT RAIN  39  37  92 CALM      29.62S FOG
$$

WIZ022-050-052-180200-
EAST CENTRAL WISCONSIN

CITY           SKY/WX    TMP DP  RH WIND       PRES   REMARKS
EPHRAIM        DRIZZLE   39  38  97 SW6       29.65S
WASHINGTON ISL CLOUDY    40  39  97 SW10      29.66F
STURGEON BAY   LGT RAIN  40  38  93 SW8       29.66F FOG
MANITOWOC      LGT RAIN  40  39  97 S7        29.65S FOG
SHEBOYGAN      RAIN      40  40 100 S12       29.62F FOG
$$

LMZ563-521-522-541>543-180200-
LAKESHORE

STATION/POSITION TIME  TEMP    WIND        PRES    VSBY  WAVE
                       AIR SEA DIR/SP/G                  HT/PER
                 (UTC) (F)     (DEG/KT/KT) (MB)    (MI)  (FT/S)
SHEBOYGAN LKSHOR 0100   41     200/ 17/ 20 1003.5F
NORTHPORT PIER   0040   41     210/  4/ 10 1004.7F
N MID LAKE BUOY  0050   43 48  180/ 21/ 23 1005.3F         9/ 8
SISTER BAY LKSHO 0104   40     230/  8/  9   N/A
$$




USA.gov is the U.S. government's official web portal to all federal, state and local government web resources and services.